Lapse_Rate
5.6 5.5 5.4 5.4 5.4 5.3 5.2 5.2 5.2 5.5 5.4 5.2 5.1 5.0 5.1 5.4 5.4 5.2 5.3 5.1 5.2 5.4 5.2 5.4 5.4 5.6 5.8 6.2 6.4 6.5 6.6 6.6 6.7 6.7 6.7 6.7 6.6 6.7 6.6 6.4 6.5 6.4 6.4
5.7 5.6 5.4 5.3 5.4 5.3 5.3 5.2 5.2 5.3 5.4 5.5 5.1 5.2 5.1 5.1 5.4 5.5 5.4 5.2 5.1 5.4 5.3 5.2 5.1 5.6 6.0 6.1 6.4 6.4 6.4 6.5 6.6 6.6 6.6 6.6 6.6 6.6 6.5 6.4 6.3 6.4 6.4
5.7 5.6 5.4 5.4 5.4 5.4 5.4 5.4 5.5 5.4 5.4 5.3 5.1 5.2 5.0 5.4 5.4 5.5 5.4 5.2 5.1 5.2 5.2 5.3 5.4 6.0 6.0 6.1 6.1 6.2 6.3 6.3 6.4 6.5 6.5 6.5 6.5 6.5 6.5 6.3 6.1 6.2 6.3
5.6 5.4 5.3 5.3 5.3 5.3 5.3 5.5 5.4 5.5 5.4 5.4 5.0 5.1 5.2 5.1 5.3 5.4 5.3 5.2 5.1 5.1 5.0 4.9 5.2 5.7 5.8 5.9 6.2 6.1 6.2 6.2 6.3 6.4 6.3 6.3 6.3 6.2 6.3 6.1 6.0 5.9 6.1
5.4 5.4 5.3 5.2 5.3 5.2 5.3 5.5 5.6 5.6 5.6 5.4 5.2 5.2 4.9 4.9 5.0 5.1 5.4 5.2 5.1 5.0 4.9 5.0 5.5 5.7 5.9 5.9 6.1 6.2 6.1 6.2 6.3 6.2 6.3 6.2 6.2 6.1 6.1 6.1 6.0 5.9 6.1
5.4 5.2 5.1 5.2 5.2 5.2 5.3 5.3 5.5 5.5 5.6 5.5 5.4 5.2 5.3 4.8 4.8 5.2 5.4 5.3 5.2 5.1 5.0 5.3 5.6 5.9 5.9 5.8 6.0 6.0 6.0 6.1 6.2 6.1 6.2 6.2 6.2 6.0 6.0 6.0 6.0 6.0 6.0
5.3 5.4 5.1 5.2 5.2 5.2 5.3 4.9 5.3 5.3 5.2 5.3 5.3 5.4 5.1 4.9 5.0 4.9 5.5 5.5 5.5 5.6 5.5 5.8 6.0 5.9 5.8 5.9 6.0 6.1 6.1 6.1 6.1 6.1 6.1 6.1 6.2 6.1 5.9 5.8 5.8 5.8 5.8
4.9 4.9 5.1 5.1 5.2 5.2 5.3 5.1 5.3 5.3 5.4 5.1 5.1 5.1 5.2 5.2 5.3 5.2 5.7 5.6 5.6 5.8 5.8 6.2 6.0 5.8 5.8 5.9 6.1 6.1 6.2 6.2 6.2 6.0 6.0 6.1 6.1 6.0 5.9 5.7 5.8 5.8 5.9
5.1 5.0 5.1 5.0 5.2 5.2 5.3 5.2 5.3 5.2 5.3 5.4 5.1 5.1 5.2 5.3 5.3 5.5 5.7 5.7 5.6 5.7 6.0 6.0 6.0 6.0 6.0 6.0 6.1 6.1 6.2 6.2 6.3 6.1 6.1 6.1 5.9 5.7 5.7 5.7 5.7 5.7 5.7
4.9 5.1 4.9 5.1 5.3 5.1 5.2 5.2 5.3 5.4 5.2 5.3 5.4 5.3 5.3 5.1 5.3 5.5 5.9 5.8 5.7 5.7 5.8 5.9 6.0 6.1 6.2 6.2 6.1 6.2 6.3 6.3 6.2 6.1 6.0 5.9 5.9 5.9 5.7 5.6 5.6 5.6 5.7
5.1 5.0 5.0 5.1 5.4 5.3 5.1 5.4 5.4 5.5 5.2 5.3 5.4 5.4 5.2 5.2 5.1 5.3 5.6 5.6 5.6 5.6 5.7 5.9 6.1 6.2 6.3 6.3 6.3 6.3 6.4 6.3 6.2 6.1 6.0 6.0 5.9 5.8 5.8 5.9 5.9 5.9 5.9
5.1 5.1 5.1 5.3 5.5 5.3 5.3 5.5 5.4 5.4 5.2 5.3 5.3 5.4 5.2 5.3 5.3 5.4 5.6 5.7 5.7 5.8 5.8 6.0 6.1 6.3 6.3 6.4 6.3 6.3 6.2 6.3 6.3 6.3 6.3 6.2 6.1 6.0 6.0 6.0 5.9 6.0 6.0
5.2 4.9 5.0 5.3 5.3 5.4 5.6 5.2 5.3 5.4 5.0 4.9 5.0 5.4 5.2 5.4 5.5 5.5 5.6 5.8 5.9 6.0 6.1 6.0 6.1 6.2 6.4 6.4 6.4 6.4 6.3 6.3 6.3 6.3 6.3 6.3 6.2 6.1 6.2 6.2 6.2 6.2 6.2
5.1 5.0 5.1 5.3 5.4 5.3 5.3 5.5 5.3 5.3 5.3 5.2 5.3 5.6 5.4 5.4 5.6 5.5 5.5 5.8 5.9 5.8 6.0 6.0 6.1 6.2 6.2 6.2 6.1 6.1 6.2 6.2 6.3 6.3 6.2 6.2 6.2 6.2 6.3 6.4 6.3 6.3 6.2
5.5 5.5 5.6 5.6 5.4 5.3 5.4 5.3 5.3 5.3 5.2 5.4 5.4 5.4 5.4 5.4 5.5 5.6 5.5 5.6 5.6 5.6 5.7 6.1 6.2 6.3 6.3 6.3 6.3 6.3 6.2 6.1 6.2 6.2 6.2 6.2 6.3 6.4 6.5 6.5 6.4 6.3 6.2
5.8 5.6 5.6 5.5 5.3 5.2 5.2 5.5 5.2 5.3 5.3 5.5 5.4 5.5 5.6 5.6 5.6 5.5 5.5 5.5 5.5 5.4 5.6 6.0 6.2 6.3 6.3 6.4 6.3 6.3 6.2 6.2 6.3 6.2 6.2 6.2 6.2 6.2 6.2 6.2 6.0 6.1 6.1
5.7 5.7 5.1 5.1 5.1 5.0 5.1 5.2 5.4 5.5 5.5 5.4 5.4 5.5 5.5 5.6 5.6 5.6 5.6 5.6 5.6 5.6 5.7 6.0 6.1 5.9 5.8 6.0 6.1 6.1 6.1 6.1 6.1 6.2 6.3 6.2 6.1 6.1 6.0 6.0 6.1 6.0 5.9
5.7 5.3 5.2 5.5 5.6 5.2 5.3 5.3 5.1 5.1 5.0 5.2 5.2 5.4 5.4 5.4 5.5 5.6 5.6 5.7 5.6 5.6 5.9 5.8 6.0 5.9 5.6 5.6 5.6 5.7 5.8 5.8 6.0 6.3 6.5 6.4 6.0 5.9 6.0 6.2 6.3 6.3 6.3
5.9 5.7 5.6 5.5 5.7 5.6 5.4 5.1 4.9 4.9 5.0 5.1 5.0 5.2 5.5 5.6 5.6 6.0 6.0 5.9 5.7 5.7 5.8 5.9 6.0 5.9 5.8 5.8 5.8 5.7 5.7 5.9 5.9 6.0 5.9 6.1 6.0 6.0 6.2 6.3 6.2 6.2 6.1
6.3 6.1 6.0 5.9 5.8 5.8 5.5 5.3 5.0 4.8 4.9 4.9 4.7 4.9 5.3 5.4 5.7 5.8 5.8 6.0 6.0 5.9 5.8 6.0 6.0 6.0 5.8 5.8 5.8 5.8 5.9 5.9 6.0 5.9 6.0 6.0 6.2 6.2 6.1 6.0 6.1 6.2 6.3
6.5 6.4 6.4 6.4 6.3 6.1 5.9 5.4 5.2 5.0 4.8 4.6 4.7 5.0 5.4 5.5 5.6 5.7 5.9 6.0 6.0 6.1 6.2 6.1 6.1 6.1 6.2 6.0 6.0 5.9 6.1 6.0 6.3 6.2 6.3 6.3 6.2 6.1 6.2 6.1 6.0 6.1 6.1
6.8 6.8 6.8 6.6 6.5 6.4 6.3 5.9 5.5 5.2 5.2 5.0 5.2 5.1 5.2 5.6 5.7 6.0 6.4 6.2 6.2 6.4 6.5 6.4 6.3 6.3 6.3 6.2 6.2 6.0 6.1 6.1 6.2 6.1 6.2 6.0 6.0 6.1 6.0 5.9 5.8 6.0 6.2
7.0 7.1 7.0 6.9 6.8 6.5 6.4 6.3 6.3 6.1 5.8 5.6 5.5 5.7 5.7 5.5 5.8 6.3 6.3 6.2 6.4 6.6 6.5 6.3 6.4 6.5 6.4 6.3 6.4 6.3 6.1 6.0 5.9 6.1 6.2 6.1 5.8 5.6 5.8 6.1 6.2 6.3 6.4
6.9 7.0 7.0 6.9 7.0 6.8 6.6 6.4 6.2 6.1 6.1 6.4 6.4 6.3 6.2 6.3 6.5 6.6 6.6 6.9 6.9 6.8 6.7 6.6 6.6 6.6 6.5 6.3 6.3 6.2 6.1 6.1 6.2 6.4 6.2 6.0 6.2 6.2 6.3 6.4 6.4 6.4 6.4
6.8 6.7 6.7 6.7 6.6 6.6 6.5 6.4 6.2 6.1 6.1 6.3 6.4 6.6 6.8 7.0 7.0 7.0 7.2 6.9 6.9 6.8 6.8 6.8 6.7 6.7 6.7 6.9 6.8 6.6 6.4 6.4 6.3 6.2 6.1 6.0 6.2 6.1 6.2 6.5 6.5 6.5 6.3
6.6 6.5 6.5 6.4 6.4 6.4 6.3 6.3 6.4 6.3 6.2 6.0 6.1 6.2 6.3 6.4 6.5 6.8 6.8 6.8 6.8 6.8 6.7 6.6 6.7 6.5 6.6 6.6 6.7 6.6 6.5 6.4 6.4 6.2 6.2 6.1 6.2 6.2 6.3 6.3 6.2 6.2 6.2
Wind_Speed
6 6 5 6 7 8 8 7 6 7 7 6 5 4 4 8 7 7 9 8 11 10 16 20 8 9 10 11 11 11 11 10 12 12 12 11 9 10 10 9 8 7 8
8 6 5 5 6 8 7 6 5 6 5 6 5 6 8 8 10 7 8 9 13 13 16 17 13 11 11 12 12 11 11 11 11 11 12 12 10 9 8 7 6 5 5
11 8 6 5 6 7 7 8 9 9 6 7 8 8 7 6 6 6 7 8 13 15 17 17 14 10 11 13 13 12 13 13 12 12 12 12 11 10 9 7 6 4 3
12 9 6 6 8 7 6 7 6 6 6 6 5 5 6 8 7 8 9 8 12 14 16 16 16 11 12 13 14 13 13 12 12 11 11 12 11 10 9 8 6 4 3
13 10 7 6 6 6 7 6 6 6 5 5 5 4 3 4 6 8 8 9 13 15 17 18 17 16 14 15 15 15 15 14 12 12 12 11 11 10 9 8 7 6 5
11 10 9 9 8 4 6 6 8 6 3 4 4 2 3 3 5 6 7 10 11 13 16 11 15 16 16 17 17 16 16 16 14 12 12 13 12 12 10 9 9 8 7
7 8 8 7 6 7 7 4 7 7 4 4 3 1 3 4 6 7 8 9 11 14 15 13 13 15 17 15 15 15 18 17 15 14 13 13 14 13 11 11 11 10 9
8 7 7 7 5 5 9 6 8 4 4 6 4 3 1 3 4 7 6 6 9 14 14 14 15 15 13 15 17 17 18 17 15 15 16 16 14 14 15 14 14 14 13
9 8 9 8 8 8 7 6 8 9 6 7 8 2 2 3 3 3 6 6 9 9 13 14 15 15 15 14 13 14 16 17 17 17 16 17 18 17 17 16 17 17 17
5 5 11 11 7 7 5 6 8 9 7 7 5 7 3 2 3 3 2 5 6 10 12 12 15 17 17 16 16 14 16 20 18 18 18 18 18 17 17 18 19 20 20
8 8 13 11 9 8 8 8 10 11 9 5 5 4 5 5 2 2 3 4 4 7 10 10 14 16 19 18 17 18 20 18 20 20 20 19 19 21 21 21 20 20 20
4 6 16 13 10 8 10 10 11 11 9 7 6 6 5 6 6 5 3 4 6 6 9 9 10 15 16 18 19 18 21 24 24 23 22 22 22 22 23 23 22 22 22
5 10 13 12 10 9 9 9 8 8 7 9 11 8 6 5 3 5 4 3 4 5 6 9 10 16 17 18 19 22 21 23 25 27 27 26 26 25 25 25 25 24 24
7 10 11 9 11 10 9 8 7 8 7 7 13 11 6 6 5 5 5 5 4 5 6 7 10 13 17 18 18 21 22 25 27 27 28 28 28 28 27 26 25 25 25
9 10 10 9 9 9 8 8 8 9 10 10 12 11 6 5 6 6 5 5 5 5 7 9 6 12 15 17 19 19 20 20 26 28 28 29 30 29 28 28 27 27 27
10 9 9 7 6 9 8 9 8 10 10 8 8 10 8 6 6 6 6 5 5 5 3 7 8 5 12 14 16 19 19 18 20 25 29 30 30 29 28 27 28 28 27
9 8 9 9 8 8 7 9 9 11 10 10 10 11 10 8 5 6 6 5 5 5 5 3 5 5 7 8 9 15 16 15 15 21 26 28 28 27 27 25 25 25 24
8 8 8 9 8 7 7 9 8 6 9 5 6 10 8 6 6 6 6 7 5 7 4 5 5 7 5 8 6 8 10 14 12 12 17 21 22 23 23 22 21 22 22
7 8 8 8 8 7 6 7 5 4 2 4 7 7 8 8 7 8 8 8 6 4 5 3 4 4 2 5 5 4 6 6 7 3 7 8 13 15 17 16 15 16 17
8 7 8 8 8 7 6 5 8 5 4 4 2 7 7 9 9 10 9 9 7 6 5 5 3 4 3 4 4 6 6 5 5 3 4 4 5 7 9 10 10 10 10
7 8 7 7 7 7 7 8 6 10 6 4 3 1 2 3 2 0 4 6 7 6 6 6 5 4 5 4 5 4 4 4 2 2 2 3 5 7 6 5 5 3 1
8 7 7 7 7 4 3 7 7 8 7 7 5 2 4 8 9 9 8 6 2 5 7 6 6 7 7 6 4 5 5 5 4 4 5 5 5 4 4 4 5 4 5
8 8 7 7 7 5 5 6 7 5 7 8 8 6 5 4 6 7 8 9 6 5 4 4 5 5 4 4 5 6 5 5 3 4 4 5 4 4 5 6 4 5 6
8 8 7 6 6 4 1 5 6 6 6 8 9 10 8 7 5 5 4 4 3 2 0 3 2 3 2 4 4 2 4 4 2 2 2 5 4 5 5 6 4 5 6
7 7 7 8 6 4 1 1 3 4 5 5 5 5 6 5 5 5 4 3 4 4 5 3 0 2 4 6 4 4 4 4 4 4 4 5 4 4 5 4 5 6 5
9 6 6 6 4 4 1 2 5 5 7 6 6 6 1 5 9 8 5 5 7 7 6 5 6 6 8 6 4 2 3 5 4 4 4 4 4 4 5 4 4 4 5
Wind_Direction
204 213 227 230 232 236 243 251 237 220 231 221 209 229 223 230 222 206 200 205 191 182 155 172 196 194 184 166 164 163 159 158 159 160 149 148 141 137 131 130 126 121 114
207 226 246 246 243 236 249 255 263 238 235 246 211 213 242 240 219 208 214 199 188 187 175 165 205 197 185 181 175 174 173 170 160 170 163 158 153 154 147 145 140 134 131
212 225 243 248 236 235 241 239 239 231 234 225 223 196 213 206 235 201 205 196 188 198 198 194 186 193 194 191 186 184 179 175 181 180 177 169 169 171 164 163 162 160 135
224 214 232 244 243 231 231 250 238 236 227 224 220 202 188 188 189 200 212 192 209 213 201 196 198 202 208 203 196 197 192 187 188 188 185 183 185 187 181 183 188 191 193
218 210 221 237 247 239 242 244 244 240 226 212 215 196 171 169 179 217 213 197 215 209 202 191 205 211 209 206 203 192 193 195 192 192 192 196 201 202 205 202 208 213 221
218 221 227 225 227 238 255 241 248 227 250 227 193 174 201 176 203 218 193 210 209 202 207 210 199 209 212 213 204 202 199 196 196 199 198 206 206 213 213 223 222 228 240
207 223 235 248 216 241 240 235 263 245 218 209 148 120 218 221 207 220 204 224 198 203 205 206 213 210 200 218 220 204 205 202 202 203 207 208 218 219 222 230 236 236 244
200 209 224 227 197 232 238 234 229 224 228 207 193 149 194 210 228 195 190 204 207 198 201 206 207 201 205 202 210 205 208 205 206 210 210 214 216 217 224 233 240 245 249
214 207 234 233 219 223 248 249 233 226 224 203 213 162 151 246 179 169 197 202 197 199 201 204 206 202 207 212 210 211 213 209 207 212 215 214 220 223 227 233 242 248 251
207 237 244 226 231 227 209 240 258 239 232 207 203 220 211 232 193 159 168 199 194 207 203 203 205 208 208 213 213 223 204 215 215 217 222 225 228 229 230 233 235 241 247
203 215 261 248 227 226 218 213 231 222 222 219 202 172 205 228 232 230 167 181 190 212 210 209 209 210 210 213 217 216 222 221 222 223 225 230 231 234 237 239 240 242 245
205 231 238 245 244 233 224 219 221 215 214 220 219 214 191 195 197 194 181 178 196 199 212 209 213 214 213 214 221 222 216 226 231 232 232 232 234 238 242 244 244 244 245
216 231 232 234 240 244 249 235 219 216 206 219 219 219 215 211 185 202 215 167 175 191 193 214 212 216 216 218 221 219 223 225 229 235 237 235 235 237 242 245 248 251 253
215 226 228 229 238 242 242 243 229 214 203 213 219 215 214 213 201 198 212 207 190 190 191 195 207 211 214 216 221 213 226 224 229 234 238 238 237 238 239 242 245 248 252
230 234 230 220 226 232 226 229 232 223 212 209 215 211 208 194 203 198 208 219 237 203 211 199 193 207 211 213 219 217 224 227 229 233 238 240 241 241 240 241 244 247 249
227 236 224 213 211 221 218 226 224 229 213 208 204 201 207 193 190 186 200 209 215 247 235 201 202 172 204 211 213 216 222 224 227 233 237 240 241 244 246 246 246 248 251
225 222 231 229 211 213 217 231 231 223 216 207 207 199 202 195 192 183 193 195 204 212 236 150 200 175 203 212 212 215 223 223 229 229 235 240 243 244 246 250 252 254 258
217 227 216 213 218 210 227 229 226 203 200 205 219 198 194 195 205 211 209 210 210 192 229 196 176 175 208 200 205 213 220 221 225 216 229 237 239 239 244 245 248 254 258
218 207 206 202 195 193 210 220 199 134 161 176 258 212 207 202 203 211 214 208 209 194 213 217 165 160 157 168 172 194 205 197 210 151 203 224 233 231 236 247 255 260 261
192 192 195 191 194 195 210 210 177 147 184 198 207 234 207 209 215 208 210 212 206 207 207 225 206 185 192 153 189 179 184 194 183 152 139 171 196 197 210 213 221 235 250
191 188 183 186 196 209 219 202 206 175 185 161 138 210 177 246 205 288 220 211 199 205 218 226 222 211 202 196 210 183 195 172 159 196 175 161 187 188 169 154 120 107 74
179 174 172 174 176 182 140 222 206 199 164 162 152 179 108 112 99 90 82 62 72 217 225 231 232 230 221 214 187 201 185 184 196 185 189 170 195 177 164 135 96 99 86
169 168 164 163 166 164 174 186 205 185 167 171 164 155 149 122 131 130 96 97 73 34 355 220 220 231 222 210 180 181 190 203 213 139 218 195 198 183 166 119 72 79 70
173 172 170 174 173 175 188 202 194 190 186 173 169 168 159 149 120 124 136 149 166 144 117 251 228 201 171 151 172 173 158 136 134 163 235 244 181 206 189 144 88 100 77
174 180 181 178 186 189 150 279 232 230 219 200 177 168 162 157 132 135 163 197 208 202 137 63 194 21 106 118 145 167 184 208 213 208 197 246 192 203 214 198 162 106 76
176 180 184 188 150 193 176 231 235 242 225 206 187 171 191 174 157 168 190 196 206 204 197 173 161 142 154 147 162 222 192 227 222 214 160 229 191 211 219 205 205 186 162